Time,TemperatureF,DewpointF,PressureIn,WindDirection,WindDirectionDegrees,WindSpeedMPH,WindSpeedGustMPH,Humidity,HourlyPrecipIn,Conditions,Clouds,dailyrainin,SoftwareType,DateUTC
2013-03-04 15:17:00,36.2,20.7,29.20,SE,143,6.0,9.0,53,0.00,,,0.00,WUHU216DAVISVP2,2013-03-04 20:17:00,
2013-03-04 15:22:00,36.2,20.7,29.20,ESE,121,4.0,9.0,53,0.00,,,0.00,WUHU216DAVISVP2,2013-03-04 20:22:00,
2013-03-04 15:27:00,36.1,21.0,29.20,SSE,150,4.0,9.0,54,0.00,,,0.00,WUHU216DAVISVP2,2013-03-04 20:27:00,
2013-03-04 15:32:00,36.2,22.0,29.20,SSE,150,0.0,9.0,56,0.00,,,0.00,WUHU216DAVISVP2,2013-03-04 20:32:00,
2013-03-04 15:37:00,36.1,21.9,29.19,ESE,116,4.0,9.0,56,0.00,,,0.00,WUHU216DAVISVP2,2013-03-04 20:37:00,
2013-03-04 15:42:00,36.1,22.4,29.20,SE,142,2.0,9.0,57,0.00,,,0.00,WUHU216DAVISVP2,2013-03-04 20:42:00,
2013-03-04 15:43:00,36.1,22.4,29.20,SE,133,5.0,9.0,57,0.00,,,0.00,WUHU216DAVISVP2,2013-03-04 20:43:00,
2013-03-04 15:47:00,36.2,22.5,29.20,South,172,4.0,9.0,57,0.00,,,0.00,WUHU216DAVISVP2,2013-03-04 20:47:00,
2013-03-04 15:48:00,36.2,22.5,29.20,ESE,119,4.0,9.0,57,0.00,,,0.00,WUHU216DAVISVP2,2013-03-04 20:48:00,
2013-03-04 15:52:00,36.1,21.9,29.20,ESE,104,2.0,9.0,56,0.00,,,0.00,WUHU216DAVISVP2,2013-03-04 20:52:00,
2013-03-04 15:53:00,36.1,21.9,29.20,SE,141,1.0,9.0,56,0.00,,,0.00,WUHU216DAVISVP2,2013-03-04 20:53:00,
2013-03-04 15:57:00,36.1,22.4,29.20,ESE,114,4.0,9.0,57,0.00,,,0.00,WUHU216DAVISVP2,2013-03-04 20:57:00,
2013-03-04 15:58:00,36.1,21.9,29.20,ESE,123,7.0,9.0,56,0.00,,,0.00,WUHU216DAVISVP2,2013-03-04 20:58:00,
2013-03-04 16:03:00,36.0,22.3,29.19,SSE,154,6.0,9.0,57,0.00,,,0.00,WUHU216DAVISVP2,2013-03-04 21:03:00,
2013-03-04 16:08:00,36.1,22.8,29.19,ESE,119,5.0,9.0,58,0.00,,,0.00,WUHU216DAVISVP2,2013-03-04 21:08:00,
2013-03-04 16:09:00,36.1,23.2,29.19,East,97,2.0,9.0,59,0.00,,,0.00,WUHU216DAVISVP2,2013-03-04 21:09:00,
2013-03-04 16:13:00,36.1,23.2,29.19,ESE,114,2.0,9.0,59,0.00,,,0.00,WUHU216DAVISVP2,2013-03-04 21:13:00,
2013-03-04 16:14:00,36.1,22.8,29.19,SE,127,5.0,9.0,58,0.00,,,0.00,WUHU216DAVISVP2,2013-03-04 21:14:00,
2013-03-04 16:18:00,36.1,22.8,29.19,ESE,118,8.0,8.0,58,0.00,,,0.00,WUHU216DAVISVP2,2013-03-04 21:18:00,
2013-03-04 16:19:00,36.1,22.8,29.19,ESE,115,6.0,11.0,58,0.00,,,0.00,WUHU216DAVISVP2,2013-03-04 21:19:00,
2013-03-04 16:23:00,36.0,22.7,29.19,SE,135,3.0,11.0,58,0.00,,,0.00,WUHU216DAVISVP2,2013-03-04 21:23:00,
2013-03-04 16:24:00,36.1,22.8,29.19,SE,131,5.0,11.0,58,0.00,,,0.00,WUHU216DAVISVP2,2013-03-04 21:24:00,
2013-03-04 16:28:00,36.1,22.8,29.18,SE,127,6.0,11.0,58,0.00,,,0.00,WUHU216DAVISVP2,2013-03-04 21:28:00,
2013-03-04 16:29:00,36.1,22.4,29.18,SE,127,1.0,11.0,57,0.00,,,0.00,WUHU216DAVISVP2,2013-03-04 21:29:00,
2013-03-04 16:33:00,36.2,22.9,29.18,ESE,122,1.0,11.0,58,0.00,,,0.00,WUHU216DAVISVP2,2013-03-04 21:33:00,
2013-03-04 16:34:00,36.2,22.9,29.18,ESE,122,2.0,11.0,58,0.00,,,0.00,WUHU216DAVISVP2,2013-03-04 21:34:00,
2013-03-04 16:38:00,36.2,22.5,29.19,SE,132,5.0,9.0,57,0.00,,,0.00,WUHU216DAVISVP2,2013-03-04 21:38:00,
2013-03-04 16:39:00,36.2,22.5,29.19,ESE,119,6.0,9.0,57,0.00,,,0.00,WUHU216DAVISVP2,2013-03-04 21:39:00,
2013-03-04 16:40:00,36.2,22.5,29.18,SE,146,6.0,11.0,57,0.00,,,0.00,WUHU216DAVISVP2,2013-03-04 21:40:00,
2013-03-04 16:43:00,36.1,22.8,29.18,SE,146,1.0,11.0,58,0.00,,,0.00,WUHU216DAVISVP2,2013-03-04 21:43:00,
2013-03-04 16:44:00,36.2,22.9,29.18,SE,133,6.0,11.0,58,0.00,,,0.00,WUHU216DAVISVP2,2013-03-04 21:44:00,
2013-03-04 16:45:00,36.2,22.9,29.18,SE,134,4.0,11.0,58,0.00,,,0.00,WUHU216DAVISVP2,2013-03-04 21:45:00,
2013-03-04 16:48:00,36.2,22.9,29.18,SE,127,5.0,11.0,58,0.00,,,0.00,WUHU216DAVISVP2,2013-03-04 21:48:00,
2013-03-04 16:49:00,36.2,22.9,29.18,SSE,152,2.0,11.0,58,0.00,,,0.00,WUHU216DAVISVP2,2013-03-04 21:49:00,
2013-03-04 16:50:00,36.2,22.9,29.18,ESE,102,1.0,11.0,58,0.00,,,0.00,WUHU216DAVISVP2,2013-03-04 21:50:00,
2013-03-04 16:53:00,36.2,22.9,29.19,ESE,109,2.0,11.0,58,0.00,,,0.00,WUHU216DAVISVP2,2013-03-04 21:53:00,
2013-03-04 16:54:00,36.2,22.9,29.18,ESE,108,6.0,11.0,58,0.00,,,0.00,WUHU216DAVISVP2,2013-03-04 21:54:00,
2013-03-04 16:56:00,36.3,23.0,29.18,SSE,148,2.0,11.0,58,0.00,,,0.00,WUHU216DAVISVP2,2013-03-04 21:56:00,
2013-03-04 16:58:00,36.2,22.9,29.19,SE,133,5.0,10.0,58,0.00,,,0.00,WUHU216DAVISVP2,2013-03-04 21:58:00,
2013-03-04 16:59:00,36.2,22.9,29.19,ESE,118,4.0,10.0,58,0.00,,,0.00,WUHU216DAVISVP2,2013-03-04 21:59:00,
2013-03-04 17:00:00,36.2,22.9,29.19,ESE,112,4.0,10.0,58,0.00,,,0.00,WUHU216DAVISVP2,2013-03-04 22:00:00,
2013-03-04 17:01:00,36.2,22.9,29.19,ESE,117,2.0,10.0,58,0.00,,,0.00,WUHU216DAVISVP2,2013-03-04 22:01:00,
2013-03-04 17:04:00,36.2,22.9,29.18,SE,129,4.0,10.0,58,0.00,,,0.00,WUHU216DAVISVP2,2013-03-04 22:04:00,
2013-03-04 17:05:00,36.2,22.9,29.19,SE,129,4.0,10.0,58,0.00,,,0.00,WUHU216DAVISVP2,2013-03-04 22:05:00,
2013-03-04 17:06:00,36.2,22.9,29.19,SE,126,2.0,10.0,58,0.00,,,0.00,WUHU216DAVISVP2,2013-03-04 22:06:00,
2013-03-04 17:09:00,36.2,22.9,29.18,SSE,161,4.0,10.0,58,0.00,,,0.00,WUHU216DAVISVP2,2013-03-04 22:09:00,
2013-03-04 17:10:00,36.2,22.9,29.18,SSE,158,5.0,10.0,58,0.00,,,0.00,WUHU216DAVISVP2,2013-03-04 22:10:00,
2013-03-04 17:11:00,36.2,22.5,29.18,SSE,161,5.0,10.0,57,0.00,,,0.00,WUHU216DAVISVP2,2013-03-04 22:11:00,
2013-03-04 17:14:00,36.2,22.4,29.18,SE,126,1.0,9.0,57,0.00,,,0.00,WUHU216DAVISVP2,2013-03-04 22:14:00,
2013-03-04 17:15:00,36.2,22.4,29.18,SE,131,5.0,9.0,57,0.00,,,0.00,WUHU216DAVISVP2,2013-03-04 22:15:00,
2013-03-04 17:16:00,36.2,22.4,29.18,ESE,113,7.0,8.0,57,0.00,,,0.00,WUHU216DAVISVP2,2013-03-04 22:16:00,
2013-03-04 17:19:00,36.2,22.4,29.18,ESE,120,2.0,10.0,57,0.00,,,0.00,WUHU216DAVISVP2,2013-03-04 22:19:00,
2013-03-04 17:20:00,36.2,22.4,29.18,SE,133,4.0,10.0,57,0.00,,,0.00,WUHU216DAVISVP2,2013-03-04 22:20:00,
2013-03-04 17:21:00,36.2,22.4,29.18,ESE,109,1.0,10.0,57,0.00,,,0.00,WUHU216DAVISVP2,2013-03-04 22:21:00,
2013-03-04 17:24:00,36.2,22.8,29.18,SE,125,2.0,10.0,58,0.00,,,0.00,WUHU216DAVISVP2,2013-03-04 22:24:00,
2013-03-04 17:25:00,36.2,22.8,29.18,SE,129,3.0,10.0,58,0.00,,,0.00,WUHU216DAVISVP2,2013-03-04 22:25:00,
2013-03-04 17:26:00,36.2,22.8,29.18,SE,133,4.0,10.0,58,0.00,,,0.00,WUHU216DAVISVP2,2013-03-04 22:26:00,
2013-03-04 17:29:00,36.1,22.3,29.18,East,99,6.0,10.0,57,0.00,,,0.00,WUHU216DAVISVP2,2013-03-04 22:29:00,
2013-03-04 17:30:00,36.1,22.7,29.18,ESE,116,6.0,10.0,58,0.00,,,0.00,WUHU216DAVISVP2,2013-03-04 22:30:00,
2013-03-04 17:31:00,36.1,22.7,29.18,SE,127,4.0,10.0,58,0.00,,,0.00,WUHU216DAVISVP2,2013-03-04 22:31:00,
2013-03-04 17:34:00,36.1,22.7,29.18,ESE,119,2.0,10.0,58,0.00,,,0.00,WUHU216DAVISVP2,2013-03-04 22:34:00,
2013-03-04 17:36:00,36.0,22.6,29.17,SE,132,4.0,8.0,58,0.00,,,0.00,WUHU216DAVISVP2,2013-03-04 22:36:00,
2013-03-04 17:39:00,36.0,22.6,29.17,ESE,116,3.0,8.0,58,0.00,,,0.00,WUHU216DAVISVP2,2013-03-04 22:39:00,
2013-03-04 17:41:00,35.9,23.0,29.17,SE,127,6.0,8.0,59,0.00,,,0.00,WUHU216DAVISVP2,2013-03-04 22:41:00,
2013-03-04 17:44:00,35.8,22.9,29.17,ESE,113,8.0,9.0,59,0.00,,,0.00,WUHU216DAVISVP2,2013-03-04 22:44:00,
2013-03-04 17:46:00,35.8,22.9,29.17,ESE,110,10.0,10.0,59,0.00,,,0.00,WUHU216DAVISVP2,2013-03-04 22:46:00,
2013-03-04 17:49:00,35.7,23.2,29.17,ESE,108,10.0,11.0,60,0.00,,,0.00,WUHU216DAVISVP2,2013-03-04 22:49:00,
2013-03-04 17:51:00,35.6,23.1,29.17,SE,124,5.0,11.0,60,0.00,,,0.00,WUHU216DAVISVP2,2013-03-04 22:51:00,
2013-03-04 17:54:00,35.6,23.1,29.17,ESE,116,4.0,11.0,60,0.00,,,0.00,WUHU216DAVISVP2,2013-03-04 22:54:00,
2013-03-04 17:56:00,35.6,23.1,29.17,SE,129,6.0,11.0,60,0.00,,,0.00,WUHU216DAVISVP2,2013-03-04 22:56:00,
2013-03-04 18:00:00,35.5,23.4,29.17,ESE,112,4.0,11.0,61,0.00,,,0.00,WUHU216DAVISVP2,2013-03-04 23:00:00,
2013-03-04 18:01:00,35.5,23.4,29.17,ESE,116,4.0,11.0,61,0.00,,,0.00,WUHU216DAVISVP2,2013-03-04 23:01:00,
2013-03-04 18:02:00,35.5,23.4,29.17,ESE,120,7.0,11.0,61,0.00,,,0.00,WUHU216DAVISVP2,2013-03-04 23:02:00,
2013-03-04 18:05:00,35.4,23.3,29.17,ESE,118,7.0,11.0,61,0.00,,,0.00,WUHU216DAVISVP2,2013-03-04 23:05:00,
2013-03-04 18:06:00,35.4,23.3,29.17,ESE,118,7.0,12.0,61,0.00,,,0.00,WUHU216DAVISVP2,2013-03-04 23:06:00,
2013-03-04 18:07:00,35.3,23.2,29.17,ESE,122,6.0,12.0,61,0.00,,,0.00,WUHU216DAVISVP2,2013-03-04 23:07:00,
2013-03-04 18:10:00,35.3,23.2,29.17,ESE,116,6.0,12.0,61,0.00,,,0.00,WUHU216DAVISVP2,2013-03-04 23:10:00,
2013-03-04 18:11:00,35.3,23.2,29.17,ESE,114,8.0,12.0,61,0.00,,,0.00,WUHU216DAVISVP2,2013-03-04 23:11:00,
2013-03-04 18:12:00,35.3,23.2,29.17,SE,125,4.0,12.0,61,0.00,,,0.00,WUHU216DAVISVP2,2013-03-04 23:12:00,
2013-03-04 18:15:00,35.3,23.2,29.17,ESE,120,8.0,12.0,61,0.00,,,0.00,WUHU216DAVISVP2,2013-03-04 23:15:00,
2013-03-04 18:17:00,35.3,23.2,29.17,SE,127,7.0,12.0,61,0.00,,,0.00,WUHU216DAVISVP2,2013-03-04 23:17:00,
2013-03-04 18:21:00,35.2,23.2,29.17,ESE,110,8.0,12.0,61,0.00,,,0.00,WUHU216DAVISVP2,2013-03-04 23:21:00,
2013-03-04 18:22:00,35.2,23.2,29.17,ESE,120,4.0,12.0,61,0.00,,,0.00,WUHU216DAVISVP2,2013-03-04 23:22:00,
2013-03-04 18:26:00,35.2,23.2,29.17,SE,125,8.0,12.0,61,0.00,,,0.00,WUHU216DAVISVP2,2013-03-04 23:26:00,
2013-03-04 18:27:00,35.2,23.2,29.17,ESE,116,5.0,12.0,61,0.00,,,0.00,WUHU216DAVISVP2,2013-03-04 23:27:00,
2013-03-04 18:28:00,35.2,23.2,29.17,ESE,116,8.0,12.0,61,0.00,,,0.00,WUHU216DAVISVP2,2013-03-04 23:28:00,
2013-03-04 18:31:00,35.1,23.1,29.17,ESE,122,5.0,12.0,61,0.00,,,0.00,WUHU216DAVISVP2,2013-03-04 23:31:00,
2013-03-04 18:32:00,35.1,23.1,29.17,ESE,112,8.0,12.0,61,0.00,,,0.00,WUHU216DAVISVP2,2013-03-04 23:32:00,
2013-03-04 18:33:00,35.1,23.1,29.17,SE,129,6.0,12.0,61,0.00,,,0.00,WUHU216DAVISVP2,2013-03-04 23:33:00,
2013-03-04 18:36:00,35.1,23.1,29.17,SE,143,5.0,12.0,61,0.00,,,0.00,WUHU216DAVISVP2,2013-03-04 23:36:00,
2013-03-04 18:37:00,35.1,23.1,29.17,ESE,112,7.0,12.0,61,0.00,,,0.00,WUHU216DAVISVP2,2013-03-04 23:37:00,
2013-03-04 18:38:00,35.1,23.1,29.17,SE,132,5.0,10.0,61,0.00,,,0.00,WUHU216DAVISVP2,2013-03-04 23:38:00,
2013-03-04 18:41:00,35.1,23.1,29.17,ESE,116,5.0,10.0,61,0.00,,,0.00,WUHU216DAVISVP2,2013-03-04 23:41:00,
2013-03-04 18:42:00,35.1,23.1,29.17,ESE,122,7.0,10.0,61,0.00,,,0.00,WUHU216DAVISVP2,2013-03-04 23:42:00,
2013-03-04 18:43:00,35.1,23.1,29.17,SE,124,5.0,10.0,61,0.00,,,0.00,WUHU216DAVISVP2,2013-03-04 23:43:00,
2013-03-04 18:46:00,35.1,23.1,29.17,ESE,112,5.0,10.0,61,0.00,,,0.00,WUHU216DAVISVP2,2013-03-04 23:46:00,
2013-03-04 18:47:00,35.1,23.1,29.17,SE,127,6.0,10.0,61,0.00,,,0.00,WUHU216DAVISVP2,2013-03-04 23:47:00,
2013-03-04 18:48:00,35.1,23.1,29.17,SE,133,5.0,10.0,61,0.00,,,0.00,WUHU216DAVISVP2,2013-03-04 23:48:00,
2013-03-04 18:51:00,35.1,23.1,29.16,SE,133,8.0,12.0,61,0.00,,,0.00,WUHU216DAVISVP2,2013-03-04 23:51:00,
2013-03-04 18:53:00,35.1,23.1,29.16,ESE,116,7.0,12.0,61,0.00,,,0.00,WUHU216DAVISVP2,2013-03-04 23:53:00,
2013-03-04 18:54:00,35.0,23.4,29.16,ESE,122,5.0,12.0,62,0.00,,,0.00,WUHU216DAVISVP2,2013-03-04 23:54:00,
2013-03-04 18:56:00,35.0,23.4,29.16,ESE,123,5.0,12.0,62,0.00,,,0.00,WUHU216DAVISVP2,2013-03-04 23:56:00,
2013-03-04 18:58:00,35.0,23.4,29.16,ESE,114,8.0,14.0,62,0.00,,,0.00,WUHU216DAVISVP2,2013-03-04 23:58:00,
2013-03-04 18:59:00,35.0,23.4,29.16,East,89,9.0,14.0,62,0.00,,,0.00,WUHU216DAVISVP2,2013-03-04 23:59:00,
2013-03-04 19:01:00,35.0,23.4,29.17,SE,141,8.0,14.0,62,0.00,,,0.00,WUHU216DAVISVP2,2013-03-05 00:01:00,
2013-03-04 19:03:00,35.0,23.4,29.16,SSE,158,5.0,14.0,62,0.00,,,0.00,WUHU216DAVISVP2,2013-03-05 00:03:00,
2013-03-04 19:04:00,35.0,23.4,29.16,East,95,5.0,14.0,62,0.00,,,0.00,WUHU216DAVISVP2,2013-03-05 00:04:00,
2013-03-04 19:07:00,35.0,23.4,29.17,SE,137,4.0,14.0,62,0.00,,,0.00,WUHU216DAVISVP2,2013-03-05 00:07:00,
2013-03-04 19:08:00,35.0,23.4,29.17,ESE,107,8.0,14.0,62,0.00,,,0.00,WUHU216DAVISVP2,2013-03-05 00:08:00,
2013-03-04 19:09:00,35.0,23.0,29.17,SE,135,7.0,14.0,61,0.00,,,0.00,WUHU216DAVISVP2,2013-03-05 00:09:00,
2013-03-04 19:12:00,35.0,23.4,29.17,ESE,115,4.0,14.0,62,0.00,,,0.00,WUHU216DAVISVP2,2013-03-05 00:12:00,
2013-03-04 19:13:00,35.0,23.4,29.17,ESE,117,5.0,14.0,62,0.00,,,0.00,WUHU216DAVISVP2,2013-03-05 00:13:00,
2013-03-04 19:14:00,35.0,23.4,29.17,ESE,108,6.0,14.0,62,0.00,,,0.00,WUHU216DAVISVP2,2013-03-05 00:14:00,
2013-03-04 19:17:00,35.0,23.4,29.17,ESE,110,5.0,11.0,62,0.00,,,0.00,WUHU216DAVISVP2,2013-03-05 00:17:00,
2013-03-04 19:18:00,35.0,23.4,29.17,SE,127,4.0,10.0,62,0.00,,,0.00,WUHU216DAVISVP2,2013-03-05 00:18:00,
2013-03-04 19:19:00,35.0,23.4,29.17,ESE,123,4.0,10.0,62,0.00,,,0.00,WUHU216DAVISVP2,2013-03-05 00:19:00,
2013-03-04 19:20:00,35.0,23.4,29.17,SE,124,3.0,10.0,62,0.00,,,0.00,WUHU216DAVISVP2,2013-03-05 00:20:00,
2013-03-04 19:22:00,34.9,23.6,29.17,SE,124,4.0,10.0,63,0.00,,,0.00,WUHU216DAVISVP2,2013-03-05 00:22:00,
2013-03-04 19:23:00,34.9,23.6,29.17,ESE,107,8.0,10.0,63,0.00,,,0.00,WUHU216DAVISVP2,2013-03-05 00:23:00,
2013-03-04 19:24:00,34.8,23.5,29.17,SE,124,5.0,10.0,63,0.00,,,0.00,WUHU216DAVISVP2,2013-03-05 00:24:00,
2013-03-04 19:25:00,34.8,23.5,29.17,ESE,122,4.0,10.0,63,0.00,,,0.00,WUHU216DAVISVP2,2013-03-05 00:25:00,
2013-03-04 19:27:00,34.8,23.5,29.17,SE,135,7.0,10.0,63,0.00,,,0.00,WUHU216DAVISVP2,2013-03-05 00:27:00,
2013-03-04 19:28:00,34.8,23.5,29.17,ESE,122,6.0,10.0,63,0.00,,,0.00,WUHU216DAVISVP2,2013-03-05 00:28:00,
2013-03-04 19:30:00,34.8,23.5,29.17,SE,139,6.0,10.0,63,0.00,,,0.00,WUHU216DAVISVP2,2013-03-05 00:30:00,
2013-03-04 19:32:00,34.7,23.8,29.17,ESE,112,2.0,10.0,64,0.00,,,0.00,WUHU216DAVISVP2,2013-03-05 00:32:00,
2013-03-04 19:33:00,34.7,23.8,29.17,ESE,112,5.0,10.0,64,0.00,,,0.00,WUHU216DAVISVP2,2013-03-05 00:33:00,
2013-03-04 19:35:00,34.7,23.8,29.17,SE,127,5.0,9.0,64,0.00,,,0.00,WUHU216DAVISVP2,2013-03-05 00:35:00,
2013-03-04 19:37:00,34.6,24.1,29.17,SE,127,1.0,9.0,65,0.00,,,0.00,WUHU216DAVISVP2,2013-03-05 00:37:00,
2013-03-04 19:38:00,34.6,24.1,29.17,SE,127,1.0,9.0,65,0.00,,,0.00,WUHU216DAVISVP2,2013-03-05 00:38:00,
2013-03-04 19:40:00,34.6,24.1,29.18,ESE,104,2.0,9.0,65,0.00,,,0.00,WUHU216DAVISVP2,2013-03-05 00:40:00,
2013-03-04 19:42:00,34.6,24.1,29.18,SE,135,1.0,9.0,65,0.00,,,0.00,WUHU216DAVISVP2,2013-03-05 00:42:00,
2013-03-04 19:43:00,34.6,24.1,29.18,ESE,122,2.0,9.0,65,0.00,,,0.00,WUHU216DAVISVP2,2013-03-05 00:43:00,
2013-03-04 19:45:00,34.5,24.4,29.18,ESE,122,0.0,9.0,66,0.00,,,0.00,WUHU216DAVISVP2,2013-03-05 00:45:00,
2013-03-04 19:46:00,34.5,24.4,29.18,ESE,122,0.0,9.0,66,0.00,,,0.00,WUHU216DAVISVP2,2013-03-05 00:46:00,
2013-03-04 19:48:00,34.5,24.7,29.18,ESE,121,0.0,8.0,67,0.00,,,0.00,WUHU216DAVISVP2,2013-03-05 00:48:00,
2013-03-04 19:50:00,34.5,24.7,29.18,ESE,112,1.0,7.0,67,0.00,,,0.00,WUHU216DAVISVP2,2013-03-05 00:50:00,
2013-03-04 19:51:00,34.5,24.4,29.18,ESE,112,0.0,7.0,66,0.00,,,0.00,WUHU216DAVISVP2,2013-03-05 00:51:00,
2013-03-04 19:53:00,34.5,24.7,29.18,ESE,118,0.0,7.0,67,0.00,,,0.00,WUHU216DAVISVP2,2013-03-05 00:53:00,
2013-03-04 19:55:00,34.5,24.7,29.18,ESE,121,4.0,8.0,67,0.00,,,0.00,WUHU216DAVISVP2,2013-03-05 00:55:00,
2013-03-04 19:56:00,34.5,25.1,29.18,SE,133,4.0,8.0,68,0.00,,,0.00,WUHU216DAVISVP2,2013-03-05 00:56:00,
2013-03-04 19:58:00,34.5,25.1,29.18,SE,130,5.0,8.0,68,0.00,,,0.00,WUHU216DAVISVP2,2013-03-05 00:58:00,
2013-03-04 20:00:00,34.5,25.1,29.18,SE,128,1.0,8.0,68,0.00,,,0.00,WUHU216DAVISVP2,2013-03-05 01:00:00,
2013-03-04 20:01:00,34.5,25.1,29.18,SSE,155,5.0,8.0,68,0.00,,,0.00,WUHU216DAVISVP2,2013-03-05 01:01:00,
2013-03-04 20:03:00,34.4,25.0,29.19,ENE,75,9.0,9.0,68,0.00,,,0.00,WUHU216DAVISVP2,2013-03-05 01:03:00,
2013-03-04 20:04:00,34.4,24.9,29.19,SE,136,5.0,10.0,68,0.00,,,0.00,WUHU216DAVISVP2,2013-03-05 01:04:00,
2013-03-04 20:05:00,34.4,25.3,29.19,ESE,120,2.0,10.0,69,0.00,,,0.00,WUHU216DAVISVP2,2013-03-05 01:05:00,
2013-03-04 20:06:00,34.4,25.3,29.19,ESE,118,5.0,10.0,69,0.00,,,0.00,WUHU216DAVISVP2,2013-03-05 01:06:00,
2013-03-04 20:08:00,34.4,25.3,29.19,SSE,150,1.0,10.0,69,0.00,,,0.00,WUHU216DAVISVP2,2013-03-05 01:08:00,
2013-03-04 20:09:00,34.4,25.3,29.19,SSE,150,0.0,10.0,69,0.00,,,0.00,WUHU216DAVISVP2,2013-03-05 01:09:00,
2013-03-04 20:10:00,34.3,25.5,29.19,ESE,122,2.0,10.0,70,0.00,,,0.00,WUHU216DAVISVP2,2013-03-05 01:10:00,
2013-03-04 20:11:00,34.4,25.6,29.19,ESE,122,2.0,10.0,70,0.00,,,0.00,WUHU216DAVISVP2,2013-03-05 01:11:00,
2013-03-04 20:13:00,34.3,25.5,29.19,ESE,110,6.0,10.0,70,0.00,,,0.00,WUHU216DAVISVP2,2013-03-05 01:13:00,
2013-03-04 20:14:00,34.3,25.5,29.19,SE,125,5.0,10.0,70,0.00,,,0.00,WUHU216DAVISVP2,2013-03-05 01:14:00,
2013-03-04 20:16:00,34.3,25.5,29.19,SE,138,2.0,10.0,70,0.00,,,0.00,WUHU216DAVISVP2,2013-03-05 01:16:00,
2013-03-04 20:18:00,34.2,25.4,29.19,SE,126,4.0,10.0,70,0.00,,,0.00,WUHU216DAVISVP2,2013-03-05 01:18:00,
2013-03-04 20:19:00,34.2,25.4,29.19,SE,126,3.0,10.0,70,0.00,,,0.00,WUHU216DAVISVP2,2013-03-05 01:19:00,
2013-03-04 20:21:00,34.2,25.8,29.19,SE,126,3.0,10.0,71,0.00,,,0.00,WUHU216DAVISVP2,2013-03-05 01:21:00,
2013-03-04 20:23:00,34.1,25.7,29.19,SE,124,2.0,8.0,71,0.00,,,0.00,WUHU216DAVISVP2,2013-03-05 01:23:00,
2013-03-04 20:24:00,34.1,25.7,29.19,SE,124,3.0,7.0,71,0.00,,,0.00,WUHU216DAVISVP2,2013-03-05 01:24:00,
2013-03-04 20:26:00,34.1,25.7,29.19,ESE,104,4.0,7.0,71,0.00,,,0.00,WUHU216DAVISVP2,2013-03-05 01:26:00,
2013-03-04 20:28:00,34.1,25.7,29.19,SE,127,2.0,7.0,71,0.00,,,0.00,WUHU216DAVISVP2,2013-03-05 01:28:00,
2013-03-04 20:29:00,34.0,25.6,29.19,SE,135,2.0,7.0,71,0.00,,,0.00,WUHU216DAVISVP2,2013-03-05 01:29:00,
2013-03-04 20:31:00,34.0,25.6,29.20,SE,135,4.0,7.0,71,0.00,,,0.00,WUHU216DAVISVP2,2013-03-05 01:31:00,
2013-03-04 20:32:00,34.0,25.6,29.20,SE,126,4.0,7.0,71,0.00,,,0.00,WUHU216DAVISVP2,2013-03-05 01:32:00,
2013-03-04 20:34:00,34.0,25.6,29.20,ESE,118,3.0,7.0,71,0.00,,,0.00,WUHU216DAVISVP2,2013-03-05 01:34:00,
2013-03-04 20:36:00,34.0,25.6,29.20,SE,125,1.0,7.0,71,0.00,,,0.00,WUHU216DAVISVP2,2013-03-05 01:36:00,
2013-03-04 20:37:00,34.0,25.6,29.20,ESE,114,2.0,7.0,71,0.00,,,0.00,WUHU216DAVISVP2,2013-03-05 01:37:00,
2013-03-04 20:39:00,34.0,25.6,29.20,East,101,0.0,7.0,71,0.00,,,0.00,WUHU216DAVISVP2,2013-03-05 01:39:00,
2013-03-04 20:41:00,34.0,26.0,29.20,ESE,112,2.0,7.0,72,0.00,,,0.00,WUHU216DAVISVP2,2013-03-05 01:41:00,
2013-03-04 20:42:00,34.0,26.0,29.20,ESE,112,1.0,7.0,72,0.00,,,0.00,WUHU216DAVISVP2,2013-03-05 01:42:00,
2013-03-04 20:44:00,34.0,26.0,29.20,East,97,1.0,7.0,72,0.00,,,0.00,WUHU216DAVISVP2,2013-03-05 01:44:00,
2013-03-04 20:45:00,33.9,25.9,29.20,East,97,0.0,7.0,72,0.00,,,0.00,WUHU216DAVISVP2,2013-03-05 01:45:00,
2013-03-04 20:46:00,34.0,26.0,29.20,East,97,1.0,7.0,72,0.00,,,0.00,WUHU216DAVISVP2,2013-03-05 01:46:00,
2013-03-04 20:47:00,33.9,25.9,29.20,East,97,0.0,7.0,72,0.00,,,0.00,WUHU216DAVISVP2,2013-03-05 01:47:00,
2013-03-04 20:49:00,34.0,26.0,29.21,East,97,1.0,7.0,72,0.00,,,0.00,WUHU216DAVISVP2,2013-03-05 01:49:00,
2013-03-04 20:50:00,33.9,25.9,29.20,SE,136,1.0,7.0,72,0.00,,,0.00,WUHU216DAVISVP2,2013-03-05 01:50:00,
2013-03-04 20:51:00,33.9,25.9,29.21,SE,131,2.0,6.0,72,0.00,,,0.00,WUHU216DAVISVP2,2013-03-05 01:51:00,
2013-03-04 20:52:00,33.9,25.9,29.21,SE,131,1.0,6.0,72,0.00,,,0.00,WUHU216DAVISVP2,2013-03-05 01:52:00,
2013-03-04 20:54:00,33.9,25.9,29.21,ESE,110,6.0,6.0,72,0.00,,,0.00,WUHU216DAVISVP2,2013-03-05 01:54:00,
2013-03-04 20:55:00,33.9,25.9,29.21,ESE,116,0.0,6.0,72,0.00,,,0.00,WUHU216DAVISVP2,2013-03-05 01:55:00,
2013-03-04 20:56:00,33.9,25.9,29.21,SE,125,3.0,6.0,72,0.00,,,0.00,WUHU216DAVISVP2,2013-03-05 01:56:00,
2013-03-04 20:57:00,33.9,25.9,29.21,ESE,104,6.0,6.0,72,0.00,,,0.00,WUHU216DAVISVP2,2013-03-05 01:57:00,
2013-03-04 20:59:00,33.9,25.9,29.21,ESE,116,2.0,7.0,72,0.00,,,0.00,WUHU216DAVISVP2,2013-03-05 01:59:00,
2013-03-04 21:00:00,33.9,25.9,29.21,SE,141,2.0,7.0,72,0.00,,,0.00,WUHU216DAVISVP2,2013-03-05 02:00:00,
2013-03-04 21:02:00,33.9,25.9,29.21,SE,140,1.0,7.0,72,0.00,,,0.00,WUHU216DAVISVP2,2013-03-05 02:02:00,
2013-03-04 21:04:00,33.9,25.9,29.21,SE,141,0.0,7.0,72,0.00,,,0.00,WUHU216DAVISVP2,2013-03-05 02:04:00,
2013-03-04 21:05:00,33.9,26.2,29.21,ESE,119,1.0,7.0,73,0.00,,,0.00,WUHU216DAVISVP2,2013-03-05 02:05:00,
2013-03-04 21:07:00,33.9,26.2,29.21,ESE,119,0.0,7.0,73,0.00,,,0.00,WUHU216DAVISVP2,2013-03-05 02:07:00,
2013-03-04 21:09:00,33.9,26.2,29.21,ESE,119,0.0,7.0,73,0.00,,,0.00,WUHU216DAVISVP2,2013-03-05 02:09:00,
2013-03-04 21:10:00,33.9,26.2,29.22,SSE,156,3.0,7.0,73,0.00,,,0.00,WUHU216DAVISVP2,2013-03-05 02:10:00,
2013-03-04 21:12:00,33.8,26.4,29.22,SSE,156,3.0,7.0,74,0.00,,,0.00,WUHU216DAVISVP2,2013-03-05 02:12:00,
2013-03-04 21:14:00,33.6,26.6,29.22,SE,143,2.0,9.0,75,0.00,,,0.00,WUHU216DAVISVP2,2013-03-05 02:14:00,
2013-03-04 21:15:00,33.5,26.8,29.22,SSE,164,6.0,9.0,76,0.00,,,0.00,WUHU216DAVISVP2,2013-03-05 02:15:00,
2013-03-04 21:17:00,33.3,26.9,29.22,SSE,150,0.0,9.0,77,0.00,,,0.00,WUHU216DAVISVP2,2013-03-05 02:17:00,
2013-03-04 21:18:00,33.2,26.8,29.22,SSE,150,0.0,9.0,77,0.00,,,0.00,WUHU216DAVISVP2,2013-03-05 02:18:00,
2013-03-04 21:19:00,33.1,27.0,29.21,SSE,150,1.0,9.0,78,0.00,,,0.00,WUHU216DAVISVP2,2013-03-05 02:19:00,
2013-03-04 21:20:00,33.0,27.2,29.22,SSE,150,0.0,9.0,79,0.00,,,0.00,WUHU216DAVISVP2,2013-03-05 02:20:00,
2013-03-04 21:22:00,32.8,27.0,29.22,ESE,107,4.0,9.0,79,0.00,,,0.00,WUHU216DAVISVP2,2013-03-05 02:22:00,
2013-03-04 21:23:00,32.8,27.3,29.22,SE,135,2.0,9.0,80,0.00,,,0.00,WUHU216DAVISVP2,2013-03-05 02:23:00,
2013-03-04 21:24:00,32.6,27.1,29.22,ESE,114,2.0,9.0,80,0.00,,,0.00,WUHU216DAVISVP2,2013-03-05 02:24:00,
2013-03-04 21:25:00,32.5,27.3,29.22,SE,131,4.0,9.0,81,0.00,,,0.00,WUHU216DAVISVP2,2013-03-05 02:25:00,
2013-03-04 21:27:00,32.3,27.4,29.22,ESE,115,3.0,9.0,82,0.00,,,0.00,WUHU216DAVISVP2,2013-03-05 02:27:00,
2013-03-04 21:28:00,32.3,27.4,29.22,SE,138,2.0,9.0,82,0.00,,,0.00,WUHU216DAVISVP2,2013-03-05 02:28:00,
2013-03-04 21:29:00,32.1,27.2,29.22,SE,127,3.0,9.0,82,0.00,,,0.00,WUHU216DAVISVP2,2013-03-05 02:29:00,
2013-03-04 21:30:00,32.1,27.2,29.22,ESE,117,7.0,9.0,82,0.00,,,0.00,WUHU216DAVISVP2,2013-03-05 02:30:00,
2013-03-04 21:33:00,31.9,27.6,29.22,ESE,114,3.0,9.0,84,0.00,,,0.00,WUHU216DAVISVP2,2013-03-05 02:33:00,
2013-03-04 21:35:00,31.7,27.4,29.22,ESE,115,4.0,8.0,84,0.00,,,0.00,WUHU216DAVISVP2,2013-03-05 02:35:00,
2013-03-04 21:38:00,31.6,27.6,29.22,ESE,118,7.0,8.0,85,0.00,,,0.00,WUHU216DAVISVP2,2013-03-05 02:38:00,
2013-03-04 21:40:00,31.5,27.8,29.21,ESE,114,5.0,8.0,86,0.00,,,0.00,WUHU216DAVISVP2,2013-03-05 02:40:00,
2013-03-04 21:43:00,31.4,27.9,29.21,ESE,120,7.0,8.0,87,0.00,,,0.00,WUHU216DAVISVP2,2013-03-05 02:43:00,
2013-03-04 21:45:00,31.4,27.9,29.21,SE,127,4.0,9.0,87,0.00,,,0.00,WUHU216DAVISVP2,2013-03-05 02:45:00,
2013-03-04 21:48:00,31.3,28.1,29.21,ESE,120,5.0,9.0,88,0.00,,,0.00,WUHU216DAVISVP2,2013-03-05 02:48:00,
2013-03-04 21:50:00,31.3,28.1,29.21,SE,128,2.0,9.0,88,0.00,,,0.00,WUHU216DAVISVP2,2013-03-05 02:50:00,
2013-03-04 21:53:00,31.3,28.1,29.21,SE,139,4.0,10.0,88,0.00,,,0.00,WUHU216DAVISVP2,2013-03-05 02:53:00,
2013-03-04 21:55:00,31.3,28.4,29.22,SE,135,6.0,10.0,89,0.00,,,0.00,WUHU216DAVISVP2,2013-03-05 02:55:00,
2013-03-04 21:58:00,31.2,28.3,29.22,ESE,123,3.0,10.0,89,0.00,,,0.00,WUHU216DAVISVP2,2013-03-05 02:58:00,
2013-03-04 22:00:00,31.2,28.3,29.22,ESE,106,7.0,10.0,89,0.00,,,0.00,WUHU216DAVISVP2,2013-03-05 03:00:00,
2013-03-04 22:01:00,31.2,28.3,29.22,SE,128,6.0,10.0,89,0.00,,,0.00,WUHU216DAVISVP2,2013-03-05 03:01:00,
2013-03-04 22:03:00,31.3,28.4,29.21,SE,137,5.0,10.0,89,0.00,,,0.00,WUHU216DAVISVP2,2013-03-05 03:03:00,
2013-03-04 22:04:00,31.2,28.3,29.21,SE,126,7.0,10.0,89,0.00,,,0.00,WUHU216DAVISVP2,2013-03-05 03:04:00,
2013-03-04 22:06:00,31.2,28.3,29.21,ESE,112,3.0,10.0,89,0.00,,,0.00,WUHU216DAVISVP2,2013-03-05 03:06:00,
2013-03-04 22:08:00,31.2,28.6,29.21,ESE,111,5.0,10.0,90,0.00,,,0.00,WUHU216DAVISVP2,2013-03-05 03:08:00,
2013-03-04 22:09:00,31.2,28.3,29.22,SE,126,5.0,10.0,89,0.00,,,0.00,WUHU216DAVISVP2,2013-03-05 03:09:00,
2013-03-04 22:11:00,31.1,28.2,29.21,ESE,117,6.0,9.0,89,0.00,,,0.00,WUHU216DAVISVP2,2013-03-05 03:11:00,
2013-03-04 22:13:00,31.1,28.5,29.21,ESE,104,7.0,11.0,90,0.00,,,0.00,WUHU216DAVISVP2,2013-03-05 03:13:00,
2013-03-04 22:14:00,31.1,28.5,29.21,ESE,109,6.0,11.0,90,0.00,,,0.00,WUHU216DAVISVP2,2013-03-05 03:14:00,
2013-03-04 22:16:00,31.0,28.4,29.21,ESE,122,5.0,11.0,90,0.00,,,0.00,WUHU216DAVISVP2,2013-03-05 03:16:00,
2013-03-04 22:18:00,30.9,28.3,29.21,ESE,110,7.0,11.0,90,0.00,,,0.00,WUHU216DAVISVP2,2013-03-05 03:18:00,
2013-03-04 22:19:00,30.9,28.3,29.21,ESE,120,6.0,11.0,90,0.00,,,0.00,WUHU216DAVISVP2,2013-03-05 03:19:00,
2013-03-04 22:21:00,30.9,28.3,29.21,SE,127,5.0,11.0,90,0.00,,,0.00,WUHU216DAVISVP2,2013-03-05 03:21:00,
2013-03-04 22:23:00,30.8,28.4,29.21,ESE,111,6.0,11.0,91,0.00,,,0.00,WUHU216DAVISVP2,2013-03-05 03:23:00,
2013-03-04 22:24:00,30.9,28.5,29.21,ESE,114,6.0,11.0,91,0.00,,,0.00,WUHU216DAVISVP2,2013-03-05 03:24:00,
2013-03-04 22:26:00,30.9,28.5,29.21,ESE,110,9.0,11.0,91,0.00,,,0.00,WUHU216DAVISVP2,2013-03-05 03:26:00,
2013-03-04 22:28:00,30.8,28.4,29.21,ESE,113,4.0,11.0,91,0.00,,,0.00,WUHU216DAVISVP2,2013-03-05 03:28:00,
2013-03-04 22:29:00,30.8,28.4,29.21,SE,125,3.0,11.0,91,0.00,,,0.00,WUHU216DAVISVP2,2013-03-05 03:29:00,
2013-03-04 22:31:00,30.8,28.4,29.21,SE,133,4.0,10.0,91,0.00,,,0.00,WUHU216DAVISVP2,2013-03-05 03:31:00,
2013-03-04 22:33:00,30.8,28.4,29.21,ESE,110,5.0,10.0,91,0.00,,,0.00,WUHU216DAVISVP2,2013-03-05 03:33:00,
2013-03-04 22:35:00,30.8,28.4,29.21,SE,128,4.0,10.0,91,0.00,,,0.00,WUHU216DAVISVP2,2013-03-05 03:35:00,
2013-03-04 22:36:00,30.8,28.4,29.22,SE,140,2.0,10.0,91,0.00,,,0.00,WUHU216DAVISVP2,2013-03-05 03:36:00,
2013-03-04 22:37:00,30.8,28.4,29.22,SE,140,0.0,10.0,91,0.00,,,0.00,WUHU216DAVISVP2,2013-03-05 03:37:00,
2013-03-04 22:39:00,30.8,28.4,29.22,ESE,122,1.0,10.0,91,0.00,,,0.00,WUHU216DAVISVP2,2013-03-05 03:39:00,
2013-03-04 22:40:00,30.8,28.4,29.22,South,174,7.0,10.0,91,0.00,,,0.00,WUHU216DAVISVP2,2013-03-05 03:40:00,
2013-03-04 22:41:00,30.9,28.8,29.22,SE,146,4.0,10.0,92,0.00,,,0.00,WUHU216DAVISVP2,2013-03-05 03:41:00,
2013-03-04 22:42:00,30.8,28.4,29.22,ESE,110,4.0,10.0,91,0.00,,,0.00,WUHU216DAVISVP2,2013-03-05 03:42:00,
2013-03-04 22:44:00,30.9,28.8,29.22,ESE,117,0.0,10.0,92,0.00,,,0.00,WUHU216DAVISVP2,2013-03-05 03:44:00,
2013-03-04 22:45:00,30.9,28.8,29.22,ESE,117,0.0,9.0,92,0.00,,,0.00,WUHU216DAVISVP2,2013-03-05 03:45:00,
2013-03-04 22:47:00,30.9,28.8,29.22,ESE,117,2.0,9.0,92,0.00,,,0.00,WUHU216DAVISVP2,2013-03-05 03:47:00,
2013-03-04 22:49:00,30.9,28.8,29.22,ESE,114,1.0,8.0,92,0.00,,,0.00,WUHU216DAVISVP2,2013-03-05 03:49:00,
2013-03-04 22:50:00,30.9,28.9,29.22,ESE,114,4.0,8.0,92,0.00,,,0.00,WUHU216DAVISVP2,2013-03-05 03:50:00,
2013-03-04 22:52:00,30.9,28.8,29.22,ESE,112,1.0,7.0,92,0.00,,,0.00,WUHU216DAVISVP2,2013-03-05 03:52:00,
2013-03-04 22:54:00,30.9,28.8,29.22,ESE,111,6.0,7.0,92,0.00,,,0.00,WUHU216DAVISVP2,2013-03-05 03:54:00,
2013-03-04 22:55:00,31.0,28.9,29.22,ESE,112,4.0,7.0,92,0.00,,,0.00,WUHU216DAVISVP2,2013-03-05 03:55:00,
2013-03-04 22:57:00,30.9,28.8,29.22,ESE,116,4.0,7.0,92,0.00,,,0.00,WUHU216DAVISVP2,2013-03-05 03:57:00,
2013-03-04 22:59:00,30.9,28.8,29.22,ESE,110,4.0,6.0,92,0.00,,,0.00,WUHU216DAVISVP2,2013-03-05 03:59:00,
2013-03-04 23:00:00,30.9,28.8,29.22,ESE,110,4.0,7.0,92,0.00,,,0.00,WUHU216DAVISVP2,2013-03-05 04:00:00,
2013-03-04 23:02:00,30.9,28.8,29.22,ESE,102,4.0,7.0,92,0.00,,,0.00,WUHU216DAVISVP2,2013-03-05 04:02:00,
2013-03-04 23:04:00,30.9,28.8,29.21,ESE,108,6.0,7.0,92,0.00,,,0.00,WUHU216DAVISVP2,2013-03-05 04:04:00,
2013-03-04 23:05:00,30.9,28.8,29.21,ESE,104,5.0,7.0,92,0.00,,,0.00,WUHU216DAVISVP2,2013-03-05 04:05:00,
2013-03-04 23:07:00,30.9,28.8,29.21,ESE,121,6.0,8.0,92,0.00,,,0.00,WUHU216DAVISVP2,2013-03-05 04:07:00,
2013-03-04 23:08:00,30.9,28.8,29.21,ESE,110,6.0,8.0,92,0.00,,,0.00,WUHU216DAVISVP2,2013-03-05 04:08:00,
2013-03-04 23:10:00,30.8,28.7,29.21,ESE,120,4.0,8.0,92,0.00,,,0.00,WUHU216DAVISVP2,2013-03-05 04:10:00,
2013-03-04 23:12:00,30.9,28.8,29.21,ESE,122,5.0,8.0,92,0.00,,,0.00,WUHU216DAVISVP2,2013-03-05 04:12:00,
2013-03-04 23:13:00,30.9,28.8,29.21,SE,125,5.0,8.0,92,0.00,,,0.00,WUHU216DAVISVP2,2013-03-05 04:13:00,
2013-03-04 23:15:00,30.8,28.7,29.21,ESE,123,2.0,8.0,92,0.00,,,0.00,WUHU216DAVISVP2,2013-03-05 04:15:00,
2013-03-04 23:17:00,30.8,28.7,29.21,SE,131,2.0,8.0,92,0.00,,,0.00,WUHU216DAVISVP2,2013-03-05 04:17:00,
2013-03-04 23:18:00,30.8,28.7,29.21,ESE,117,6.0,8.0,92,0.00,,,0.00,WUHU216DAVISVP2,2013-03-05 04:18:00,
2013-03-04 23:20:00,30.8,28.7,29.21,ESE,112,2.0,8.0,92,0.00,,,0.00,WUHU216DAVISVP2,2013-03-05 04:20:00,
2013-03-04 23:21:00,30.8,28.7,29.21,SE,125,4.0,8.0,92,0.00,,,0.00,WUHU216DAVISVP2,2013-03-05 04:21:00,
2013-03-04 23:23:00,30.8,28.7,29.21,SE,125,5.0,8.0,92,0.00,,,0.00,WUHU216DAVISVP2,2013-03-05 04:23:00,
2013-03-04 23:25:00,30.8,28.7,29.21,ESE,114,5.0,8.0,92,0.00,,,0.00,WUHU216DAVISVP2,2013-03-05 04:25:00,
2013-03-04 23:26:00,30.7,28.6,29.20,SE,129,5.0,7.0,92,0.00,,,0.00,WUHU216DAVISVP2,2013-03-05 04:26:00,
2013-03-04 23:28:00,30.7,28.9,29.20,ESE,108,4.0,7.0,93,0.00,,,0.00,WUHU216DAVISVP2,2013-03-05 04:28:00,
2013-03-04 23:30:00,30.7,28.9,29.20,SE,125,5.0,7.0,93,0.00,,,0.00,WUHU216DAVISVP2,2013-03-05 04:30:00,
2013-03-04 23:31:00,30.7,28.9,29.20,ESE,108,4.0,7.0,93,0.00,,,0.00,WUHU216DAVISVP2,2013-03-05 04:31:00,
2013-03-04 23:33:00,30.7,28.9,29.20,ESE,116,4.0,8.0,93,0.00,,,0.00,WUHU216DAVISVP2,2013-03-05 04:33:00,
2013-03-04 23:36:00,30.6,28.8,29.20,ESE,119,4.0,8.0,93,0.00,,,0.00,WUHU216DAVISVP2,2013-03-05 04:36:00,
2013-03-04 23:38:00,30.6,28.8,29.20,SE,126,6.0,9.0,93,0.00,,,0.00,WUHU216DAVISVP2,2013-03-05 04:38:00,
2013-03-04 23:41:00,30.6,28.8,29.20,ESE,109,8.0,10.0,93,0.00,,,0.00,WUHU216DAVISVP2,2013-03-05 04:41:00,
2013-03-04 23:43:00,30.6,28.8,29.19,ESE,120,5.0,10.0,93,0.00,,,0.00,WUHU216DAVISVP2,2013-03-05 04:43:00,
2013-03-04 23:46:00,30.6,28.8,29.19,ESE,121,8.0,12.0,93,0.00,,,0.00,WUHU216DAVISVP2,2013-03-05 04:46:00,
2013-03-04 23:47:00,30.6,28.8,29.19,ESE,118,10.0,12.0,93,0.00,,,0.00,WUHU216DAVISVP2,2013-03-05 04:47:00,
2013-03-04 23:48:00,30.6,28.8,29.19,SE,127,10.0,12.0,93,0.00,,,0.00,WUHU216DAVISVP2,2013-03-05 04:48:00,
2013-03-04 23:52:00,30.6,28.8,29.19,SE,136,7.0,12.0,93,0.00,,,0.00,WUHU216DAVISVP2,2013-03-05 04:52:00,
2013-03-04 23:53:00,30.6,28.8,29.19,ESE,112,4.0,12.0,93,0.00,,,0.00,WUHU216DAVISVP2,2013-03-05 04:53:00,
2013-03-04 23:57:00,30.6,28.8,29.19,SSE,155,6.0,12.0,93,0.00,,,0.00,WUHU216DAVISVP2,2013-03-05 04:57:00,
2013-03-04 23:58:00,30.6,28.8,29.19,ESE,112,9.0,12.0,93,0.00,,,0.00,WUHU216DAVISVP2,2013-03-05 04:58:00,